Simultaneous Nadir Overpasses (SNOs) Predictions

Prediction of SNOs between NOAA-19 and TERRA Satellite Orbit:

Table of predicted SNOs for the next 14.0 days since TLE Epoch: 2/13/2021
Index Date (NOAA-19) Time (NOAA-19) Lat,Lon (NOAA-19) SZA (NOAA-19 ) Date (TERRA) Time (TERRA) Lat,Lon (TERRA) SZA (TERRA ) Distance(km) Time Diff (sec)
1 02/14/2021 11:42:22 -80.06,-143.91 86.01 02/14/2021 11:43:29 -80.03,-143.97 86.01 3.25 67
2 02/14/2021 12:33:24 80.03, 23.75 93.99 02/14/2021 12:32:55 80.03, 23.69 93.98 1.41 29
3 02/16/2021 18:06:34 -80.03, 120.45 86.77 02/16/2021 18:06:37 -80.06, 120.45 86.75 2.43 3
4 02/18/2021 23:39:50 80.06,-143.16 92.45 02/18/2021 23:40:19 80.04,-143.10 92.45 2.57 29
5 02/19/2021 00:30:47 -80.03, 24.49 87.56 02/19/2021 00:29:46 -80.04, 24.56 87.56 1.84 61
6 02/21/2021 05:13:01 -80.07, -46.42 88.34 02/21/2021 05:14:01 -80.07, -46.34 88.31 1.62 60
7 02/21/2021 06:04:02 80.05, 121.00 91.66 02/21/2021 06:03:28 80.03, 120.98 91.62 3.07 34
8 02/23/2021 11:37:13 -80.07,-142.39 89.15 02/23/2021 11:37:09 -80.05,-142.26 89.16 3.06 4
9 02/25/2021 17:10:26 80.07, -45.65 90.04 02/25/2021 17:10:50 80.06, -45.62 90.04 1.48 24



Historial Predications of SNOs between NOAA-19 and TERRA
